EW7556 Weather Reports


Display with metric or nautical units.
time (UTC)temp
F
wind
direction
speed
MPH
gust
MPH
rain 1hr
in
rain 24hr
in
rain mn
in
humidity
%
barometer
mb
20260504060112 51 197 0.0 0.0 0.00 0.00 0.00 82 1009.8
20260504050110 56 197 0.0 2.0 0.00 0.00 0.00 74 1009.8
20260504044555 57 197 0.0 2.0 0.00 0.00 0.00 70 1009.8
20260504043114 59 242 0.0 2.0 0.00 0.00 0.00 63 1009.7
20260504041602 59 242 0.0 1.0 0.00 0.00 0.00 65 1009.6
20260504040114 61 242 0.0 2.0 0.00 0.00 0.00 67 1009.5
20260504034558 63 242 0.0 0.0 0.00 0.00 0.00 62 1009.4
20260504033125 65 242 0.0 1.0 0.00 0.00 0.00 58 1009.3
20260504031506 68 242 0.0 0.0 0.00 0.00 0.00 53 1009.3
20260504030119 71 242 0.0 1.0 0.00 0.00 0.00 48 1009.3
20260504024557 74 242 0.0 1.0 0.00 0.00 0.00 41 1009.4
20260504023100 78 242 0.0 1.0 0.00 0.00 0.00 35 1009.5
20260504021603 78 242 0.0 3.0 0.00 0.00 0.00 32 1009.7
20260504020108 79 242 0.0 4.0 0.00 0.00 0.00 31 1009.8
20260504014547 78 199 0.0 2.0 0.00 0.00 0.00 31 1010.0
20260504013054 78 215 0.0 3.0 0.00 0.00 0.00 33 1010.1
20260504011556 78 185 1.0 4.0 0.00 0.00 0.00 33 1010.3
20260504010100 78 203 0.0 4.0 0.00 0.00 0.00 30 1010.5
20260504004545 79 333 0.0 4.0 0.00 0.00 0.00 30 1010.7
20260504003045 79 210 0.0 3.0 0.00 0.00 0.00 31 1010.7
20260504001557 79 238 0.0 5.0 0.00 0.00 0.00 32 1010.9
20260504000059 78 218 2.0 5.0 0.00 0.00 0.00 30 1011.0
20260503234546 79 233 1.0 4.0 0.00 0.00 0.00 31 1011.1
20260503233052 79 217 1.0 4.0 0.00 0.00 0.00 35 1011.3
20260503231553 78 231 0.0 4.0 0.00 0.00 0.00 34 1011.4
20260503230111 77 245 1.0 5.0 0.00 0.00 0.00 34 1011.6
20260503224544 77 238 2.0 6.0 0.00 0.00 0.00 40 1011.8
20260503223101 77 229 0.0 4.0 0.00 0.00 0.00 39 1012.1
20260503221553 77 333 0.0 3.0 0.00 0.00 0.00 44 1012.3
20260503220056 76 285 0.0 3.0 0.00 0.00 0.00 42 1012.5
20260503214552 75 300 1.0 4.0 0.00 0.00 0.00 43 1012.8
20260503213043 74 309 3.0 6.0 0.00 0.00 0.00 44 1013.0
20260503211543 75 347 2.0 6.0 0.00 0.00 0.00 42 1013.1
20260503210046 75 14 2.0 7.0 0.00 0.00 0.00 41 1013.2
20260503204531 75 287 3.0 6.0 0.00 0.00 0.00 42 1013.2
20260503203032 76 16 2.0 6.0 0.00 0.00 0.00 42 1013.2
20260503201538 76 259 3.0 6.0 0.00 0.00 0.00 45 1013.2
20260503200040 75 234 1.0 4.0 0.00 0.00 0.00 45 1013.4
20260503194524 75 236 2.0 5.0 0.00 0.00 0.00 47 1013.6
20260503193024 75 255 2.0 6.0 0.00 0.00 0.00 44 1013.9
20260503191527 75 262 0.0 3.0 0.00 0.00 0.00 44 1014.0
20260503190013 74 233 0.0 3.0 0.00 0.00 0.00 46 1014.1
20260503184512 73 252 0.0 4.0 0.00 0.00 0.00 50 1014.3
20260503183011 72 229 0.0 6.0 0.00 0.00 0.00 50 1014.5
20260503181534 72 229 2.0 5.0 0.00 0.00 0.00 52 1014.6
20260503180003 72 227 0.0 3.0 0.00 0.00 0.00 50 1014.8
20260503174504 71 239 0.0 3.0 0.00 0.00 0.00 49 1015.0
20260503173007 70 232 1.0 5.0 0.00 0.00 0.00 50 1015.1
20260503171521 70 241 2.0 6.0 0.00 0.00 0.00 53 1015.1
20260503170120 69 243 1.0 5.0 0.00 0.00 0.00 52 1015.1
20260503160113 69 193 0.0 4.0 0.00 0.00 0.00 55 1015.4
20260503150110 64 200 1.0 2.0 0.00 0.00 0.00 66 1015.8
20260503140104 54 188 2.0 4.0 0.00 0.00 0.00 77 1015.5
20260503120133 48 191 0.0 2.0 0.00 0.00 0.00 84 1015.3
20260503110118 52 280 0.0 0.0 0.00 0.00 0.00 75 1015.3
20260503100110 59 65 0.0 4.0 0.00 0.00 0.00 60 1014.9
20260503090109 54 195 0.0 1.0 0.00 0.00 0.00 71 1014.9
20260503081605 54 185 2.0 4.0 0.00 0.00 0.00 73 1014.9
20260503080107 53 182 1.0 3.0 0.00 0.00 0.00 75 1014.8
20260503071604 51 203 0.0 2.0 0.00 0.00 0.00 84 1014.8